Regional Weather Roundup
Issued by NWS Kansas City/Pleasant Hill, MO

Home | Current Version | Previous Version | Text Only | Print | Product List | Glossary On
Versions: 1 2 3 4 5 6 7 8 9 10 11 12 13 14 15 16 17 18 19 20 21 22 23 24 25 26 27 28 29 30 31 32 33 34 35 36 37 38 39 40 41 42 43 44 45 46 47 48 49 50
000
ASUS43 KEAX 132010
RWREAX

WEATHER ROUNDUP FOR EASTERN KANSAS AND NORTHWEST MISSOURI
NATIONAL WEATHER SERVICE KANSAS CITY/PLEASANT HILL MO
200 PM CST WED DEC 13 2017

KSZ040-057-103>105-MOZ028-029-037-043-132100-
...KANSAS CITY METROPOLITAN AREA...

CITY           SKY/WX    TMP DP  RH WIND       PRES   REMARKS
K.C. INTL      SUNNY     58  28  32 NW29G36   29.74R
K.C. DOWNTOWN  SUNNY     60  28  29 NW24G31   29.72S
LEES SUMMIT    SUNNY     60  29  30 NW20G37   29.73S
OLATHE - IXD   SUNNY     60  28  29 NW24G38   29.76R
OLATHE - OJC   SUNNY     59  28  30 NW20G30   29.75R
LAWRENCE       SUNNY     62  27  26 W24G31    29.77R

$$

MOZ001>008-011>017-020>025-030>033-038>040-044>046-053-054-132100-
...NORTHERN AND CENTRAL MISSOURI...

CITY           SKY/WX    TMP DP  RH WIND       PRES   REMARKS
ST. JOSEPH     SUNNY     57  29  34 NW28G40   29.75R
MOSBY          CLEAR     57  28  33 NW23G32   29.72S
WARRENSBURG    SUNNY     59  28  31 NW24G33   29.70S
WHITEMAN AFB   SUNNY     59  29  31 NW26G38   29.66R
CLINTON        SUNNY     63  30  29 NW17G26   29.72S
SEDALIA        SUNNY     60  31  33 NW24G37   29.70R
WARSAW         NOT AVBL
CHILLICOTHE      N/A     57  30  35 NW17G25   29.68R
KIRKSVILLE     MOSUNNY   51  37  58 NW25G35   29.62R

$$

MOZ041-047>049-056>058-063>065-088>090-097-132100-
...EASTERN AND SOUTHERN MISSOURI...

CITY           SKY/WX    TMP DP  RH WIND       PRES   REMARKS
ST. LOUIS INTL MOSUNNY   57  29  34 W35G45    29.56S
SPIRIT OF STL  MOSUNNY   58  29  33 W23G38    29.56S
COLUMBIA       SUNNY     59  30  33 NW32G43   29.63R
JEFFERSON CITY SUNNY     60  30  32 NW25G46   29.63S
ROLLA          SUNNY     57  27  31 W25G35    29.66S
OSAGE BEACH    SUNNY     57  28  33 W15G24    29.69
SPRINGFIELD    SUNNY     58  25  28 NW14G25   29.76F
BRANSON        PTSUNNY   55  25  30 NW7G18    29.79F
JOPLIN         SUNNY     58  27  30 W13G22    29.80F
WEST PLAINS    CLOUDY    59  25  27 W12G23    29.71F

$$

IAZ060-094-KSZ022-034>040-054-083-096-NEZ052-066-093-132100-
...KANSAS...SOUTHEAST NEBRASKA AND IOWA...

CITY           SKY/WX    TMP DP  RH WIND       PRES   REMARKS
TOPEKA         SUNNY     61  27  27 NW29G38   29.78S
MANHATTAN      SUNNY     61  24  24 N17G29    29.84R
EMPORIA        SUNNY     62  26  25 NW22G36   29.81S
CHANUTE        SUNNY     63  25  23 NW17G28   29.81F
WICHITA        MOSUNNY   66  21  18 NW24G30   29.86F
OMAHA          MOSUNNY   51  29  42 NW24G35   29.76R
LINCOLN        SUNNY     54  28  36 NW25G36   29.83S
FALLS CITY     SUNNY     56  27  32 NW23G37   29.77R
LAMONI         SUNNY     50  30  46 NW35G46   29.67R
DES MOINES     CLOUDY    40  30  67 NW20G31   29.67R WCI  30

$$




USA.gov is the U.S. government's official web portal to all federal, state and local government web resources and services.